GW1480 Weather Reports


Display with metric or nautical units.
time (UTC)temp
F
wind
direction
speed
MPH
gust
MPH
rain 1hr
in
rain 24hr
in
rain mn
in
humidity
%
barometer
mb
20260509200939 70 308 2.0 5.0 0.00 0.00 0.00 64 1012.5
20260509200309 70 249 0.0 0.0 0.00 0.00 0.00 63 1012.1
20260509195125 70 208 3.0 5.0 0.00 0.00 0.00 68 1012.5
20260509193915 70 68 5.0 7.0 0.00 0.00 0.00 63 1012.5
20260509193337 71 25 2.0 2.0 0.00 0.00 0.00 63 1012.8
20260509192748 71 100 5.0 7.0 0.00 0.00 0.00 63 1012.5
20260509191528 71 297 1.0 2.0 0.00 0.00 0.00 64 1012.5
20260509190313 72 75 4.0 7.0 0.00 0.00 0.00 61 1012.5
20260509185750 71 280 0.0 0.0 0.00 0.00 0.00 63 1012.5
20260509185114 71 293 4.0 7.0 0.00 0.00 0.00 60 1012.5
20260509184531 71 210 2.0 2.0 0.00 0.00 0.00 60 1012.5
20260509183936 70 226 7.0 10.0 0.00 0.00 0.00 62 1012.5
20260509183343 70 124 2.0 5.0 0.00 0.00 0.00 63 1012.5
20260509182727 70 162 0.0 0.0 0.00 0.00 0.00 61 1012.5
20260509182153 70 308 3.0 5.0 0.00 0.00 0.00 63 1012.5
20260509181515 69 122 2.0 5.0 0.00 0.00 0.00 63 1012.5
20260509180942 69 285 3.0 5.0 0.00 0.00 0.00 65 1012.5
20260509180315 68 90 3.0 5.0 0.00 0.00 0.00 65 1012.8
20260509175737 68 332 6.0 7.0 0.00 0.00 0.00 63 1012.5
20260509175152 68 277 0.0 0.0 0.00 0.00 0.00 69 1012.8
20260509174526 68 78 0.0 0.0 0.00 0.00 0.00 65 1012.8
20260509173311 68 236 4.0 7.0 0.00 0.00 0.00 66 1012.8
20260509172726 67 57 3.0 5.0 0.00 0.00 0.00 65 1012.8
20260509171510 68 255 0.0 2.0 0.00 0.00 0.00 68 1012.8
20260509170921 68 310 1.0 2.0 0.00 0.00 0.00 65 1012.8
20260509170323 68 255 1.0 5.0 0.00 0.00 0.00 68 1012.8
20260509165719 68 357 4.0 7.0 0.00 0.00 0.00 64 1012.8
20260509165133 68 229 0.0 0.0 0.00 0.00 0.00 64 1013.2
20260509164539 68 92 3.0 5.0 0.00 0.00 0.00 66 1013.2
20260509163934 68 147 0.0 0.0 0.00 0.00 0.00 62 1013.2
20260509162115 67 310 3.0 5.0 0.00 0.00 0.00 65 1012.8
20260509161540 66 231 0.0 0.0 0.00 0.00 0.00 65 1013.2
20260509160930 66 295 1.0 2.0 0.00 0.00 0.00 66 1013.2
20260509160345 66 131 4.0 5.0 0.00 0.00 0.00 66 1013.2
20260509155716 66 354 6.0 7.0 0.00 0.00 0.00 65 1013.2
20260509154540 66 289 0.0 0.0 0.00 0.00 0.00 67 1012.8
20260509153940 66 271 0.0 2.0 0.00 0.00 0.00 66 1012.8
20260509153324 66 321 0.0 0.0 0.00 0.00 0.00 67 1012.8
20260509152128 66 282 0.0 0.0 0.00 0.00 0.00 65 1012.5
20260509150915 65 35 3.0 5.0 0.00 0.00 0.00 65 1012.5
20260509150315 65 295 0.0 0.0 0.00 0.00 0.00 66 1012.5
20260509145741 64 206 0.0 0.0 0.00 0.00 0.00 67 1012.8
20260509145127 64 255 3.0 5.0 0.00 0.00 0.00 68 1012.8
20260509144508 64 240 0.0 0.0 0.00 0.00 0.00 71 1012.8
20260509143907 64 236 0.0 0.0 0.00 0.00 0.00 76 1013.2
20260509142747 63 57 1.0 2.0 0.00 0.00 0.00 69 1012.5
20260509141517 62 26 0.0 0.0 0.00 0.00 0.00 73 1012.5
20260509140924 62 225 0.0 0.0 0.00 0.00 0.00 83 1012.8
20260509140344 62 227 0.0 0.0 0.00 0.00 0.00 81 1012.8
20260509135710 61 232 0.0 0.0 0.00 0.00 0.00 84 1012.8
20260509135112 61 214 0.0 0.0 0.00 0.00 0.00 80 1012.8
20260509134545 61 244 0.0 0.0 0.00 0.00 0.00 81 1013.2
20260509133914 60 230 0.0 0.0 0.00 0.00 0.00 83 1012.8
20260509132743 60 261 0.0 0.0 0.00 0.00 0.00 84 1012.8
20260509132132 60 259 0.0 0.0 0.00 0.00 0.00 82 1012.5
20260509131511 60 232 0.0 0.0 0.00 0.00 0.00 83 1012.5
20260509130917 60 253 0.0 0.0 0.00 0.00 0.00 85 1012.5
20260509130311 59 239 0.0 0.0 0.00 0.00 0.00 85 1012.5
20260509125721 58 224 0.0 0.0 0.00 0.00 0.00 83 1012.5
20260509125123 57 234 0.0 0.0 0.00 0.00 0.00 86 1012.5
20260509123935 56 176 0.0 0.0 0.00 0.00 0.00 88 1012.5
20260509123351 56 232 0.0 0.0 0.00 0.00 0.00 88 1012.5
20260509122746 56 230 0.0 0.0 0.00 0.00 0.00 87 1012.8
20260509122142 55 222 0.0 0.0 0.00 0.00 0.00 89 1012.8
20260509121510 54 217 0.0 0.0 0.00 0.00 0.00 89 1012.8
20260509120914 54 223 0.0 0.0 0.00 0.00 0.00 88 1012.8
20260509120320 53 231 0.0 0.0 0.00 0.00 0.00 89 1012.5
20260509115739 53 215 0.0 0.0 0.00 0.00 0.00 90 1012.5
20260509115122 52 208 0.0 0.0 0.00 0.00 0.00 89 1012.8
20260509113926 51 198 0.0 0.0 0.00 0.00 0.00 90 1012.8
20260509113325 51 184 0.0 0.0 0.00 0.00 0.00 90 1012.5
20260509112131 50 204 0.0 0.0 0.00 0.00 0.00 91 1012.5
20260509110934 50 204 0.0 0.0 0.00 0.00 0.00 92 1012.8
20260509110313 50 212 0.0 0.0 0.00 0.00 0.00 92 1012.8
20260509104545 50 190 0.0 0.0 0.00 0.00 0.00 92 1012.5
20260509103940 50 213 0.0 0.0 0.00 0.00 0.00 92 1012.5
20260509103314 51 235 0.0 0.0 0.00 0.00 0.00 91 1012.1
20260509102735 51 215 0.0 0.0 0.00 0.00 0.00 91 1012.5
20260509102123 51 214 0.0 0.0 0.00 0.00 0.00 90 1012.5
20260509101514 51 219 0.0 0.0 0.00 0.00 0.00 90 1012.5
20260509100920 51 226 0.0 0.0 0.00 0.00 0.00 91 1012.5
20260509100325 51 177 0.0 0.0 0.00 0.00 0.00 90 1012.5
20260509095736 51 175 0.0 0.0 0.00 0.00 0.00 91 1012.5
20260509095147 52 225 0.0 0.0 0.00 0.00 0.00 90 1012.5
20260509094533 52 185 0.0 0.0 0.00 0.00 0.00 91 1012.5
20260509093330 52 186 0.0 0.0 0.00 0.00 0.00 90 1012.5
20260509092117 52 215 1.0 2.0 0.00 0.00 0.00 90 1012.5
20260509090945 52 222 0.0 2.0 0.00 0.00 0.00 91 1012.5
20260509090350 52 177 0.0 2.0 0.00 0.00 0.00 92 1012.5
20260509085712 51 197 0.0 2.0 0.00 0.00 0.00 92 1012.5
20260509085139 51 188 0.0 0.0 0.00 0.00 0.00 92 1012.5
20260509084533 51 214 0.0 0.0 0.00 0.00 0.00 92 1012.5
20260509083918 51 160 0.0 2.0 0.00 0.00 0.00 92 1012.8
20260509083337 51 149 1.0 2.0 0.00 0.00 0.00 91 1012.5
20260509082748 51 190 0.0 0.0 0.00 0.00 0.00 91 1012.8
20260509080323 51 243 0.0 0.0 0.00 0.00 0.00 91 1012.8
20260509075754 51 194 1.0 2.0 0.00 0.00 0.00 91 1012.8
20260509075135 51 194 0.0 0.0 0.00 0.00 0.00 92 1012.8
20260509073323 51 203 0.0 0.0 0.00 0.00 0.00 92 1012.8
20260509072738 51 180 1.0 2.0 0.00 0.00 0.00 92 1012.8
20260509071519 51 212 1.0 2.0 0.00 0.00 0.00 91 1012.8
20260509070324 51 229 0.0 2.0 0.00 0.00 0.00 91 1012.8
20260509065751 50 109 0.0 0.0 0.00 0.00 0.00 92 1012.8
20260509064519 50 197 0.0 0.0 0.00 0.00 0.00 92 1012.8
20260509063914 50 167 0.0 0.0 0.00 0.00 0.00 92 1012.8
20260509063311 50 199 0.0 0.0 0.00 0.00 0.00 92 1013.2
20260509062719 50 191 0.0 0.0 0.00 0.00 0.00 93 1012.8
20260509062128 50 177 0.0 0.0 0.00 0.00 0.00 93 1012.8
20260509060912 50 225 0.0 0.0 0.00 0.00 0.00 92 1012.8
20260509060335 50 184 0.0 0.0 0.00 0.00 0.00 92 1013.2
20260509054513 50 200 0.0 0.0 0.00 0.00 0.00 91 1013.2
20260509053935 50 191 0.0 0.0 0.00 0.00 0.00 90 1013.2
20260509053347 50 158 0.0 0.0 0.00 0.00 0.00 90 1012.8
20260509052735 50 212 0.0 0.0 0.00 0.00 0.00 91 1013.2
20260509052136 50 230 0.0 0.0 0.00 0.00 0.00 91 1013.2
20260509051536 50 162 0.0 0.0 0.00 0.00 0.00 91 1013.2
20260509050939 50 227 0.0 0.0 0.00 0.00 0.00 91 1012.8
20260509045724 50 208 0.0 0.0 0.00 0.00 0.00 92 1013.2
20260509045135 50 221 0.0 0.0 0.00 0.00 0.00 92 1013.2
20260509044542 50 221 0.0 0.0 0.00 0.00 0.00 91 1013.5
20260509043947 50 216 0.0 0.0 0.00 0.00 0.00 92 1013.2
20260509043336 50 201 0.0 0.0 0.00 0.00 0.00 93 1013.5
20260509042740 50 214 0.0 0.0 0.00 0.00 0.00 92 1013.5
20260509042147 50 227 0.0 0.0 0.00 0.00 0.00 92 1013.5
20260509041539 50 226 0.0 0.0 0.00 0.00 0.00 91 1013.2
20260509040310 50 244 0.0 0.0 0.00 0.00 0.00 90 1013.5
20260509035750 50 227 0.0 0.0 0.00 0.00 0.00 91 1013.5
20260509035153 50 226 0.0 0.0 0.00 0.00 0.00 92 1013.5
20260509034542 50 238 0.0 0.0 0.00 0.00 0.00 91 1013.5
20260509033926 50 231 0.0 0.0 0.00 0.00 0.00 92 1013.5
20260509033318 50 233 0.0 0.0 0.00 0.00 0.00 92 1013.8
20260509031510 50 226 0.0 0.0 0.00 0.00 0.00 92 1013.5
20260509030315 50 226 0.0 0.0 0.00 0.00 0.00 91 1013.8
20260509025711 51 229 0.0 0.0 0.00 0.00 0.00 90 1013.5
20260509025140 51 227 0.0 0.0 0.00 0.00 0.00 90 1013.8
20260509024550 51 226 0.0 0.0 0.00 0.00 0.00 89 1013.8
20260509023918 52 228 0.0 0.0 0.00 0.00 0.00 89 1014.2
20260509023313 52 231 0.0 0.0 0.00 0.00 0.00 87 1014.2
20260509022717 52 226 0.0 0.0 0.00 0.00 0.00 87 1014.2
20260509021510 53 206 0.0 0.0 0.00 0.00 0.00 86 1014.2
20260509020909 54 226 0.0 0.0 0.00 0.00 0.00 86 1014.2
20260509020312 54 218 0.0 0.0 0.00 0.00 0.00 85 1014.2
20260509015739 55 227 0.0 0.0 0.00 0.00 0.00 84 1013.8
20260509015127 55 219 0.0 0.0 0.00 0.00 0.00 83 1014.2
20260509014516 56 225 0.0 0.0 0.00 0.00 0.00 81 1013.8
20260509013934 56 231 0.0 0.0 0.00 0.00 0.00 82 1013.8
20260509013344 56 228 0.0 0.0 0.00 0.00 0.00 78 1013.8
20260509012746 56 229 0.0 0.0 0.00 0.00 0.00 79 1013.8
20260509012113 56 222 0.0 0.0 0.00 0.00 0.00 79 1013.5
20260509010930 56 226 0.0 0.0 0.00 0.00 0.00 81 1013.8
20260509010308 57 224 0.0 0.0 0.00 0.00 0.00 78 1013.8
20260509005746 57 229 0.0 0.0 0.00 0.00 0.00 77 1013.8
20260509005138 57 230 0.0 0.0 0.00 0.00 0.00 78 1013.8
20260509004522 57 229 0.0 0.0 0.00 0.00 0.00 74 1013.5
20260509003315 58 223 0.0 0.0 0.00 0.00 0.00 76 1013.5
20260509002713 58 226 0.0 0.0 0.00 0.00 0.00 75 1013.8
20260509002119 59 234 0.0 0.0 0.00 0.00 0.00 71 1013.8
20260509001537 60 236 0.0 0.0 0.00 0.00 0.00 68 1013.8
20260509000941 60 236 0.0 0.0 0.00 0.00 0.00 69 1013.5
20260509000311 61 250 0.0 0.0 0.00 0.00 0.00 72 1013.5
20260508235713 62 235 0.0 0.0 0.00 0.00 0.00 72 1013.5
20260508235117 64 242 0.0 0.0 0.00 0.00 0.00 70 1013.5
20260508234534 65 243 0.0 0.0 0.00 0.00 0.00 67 1013.5
20260508233914 67 241 0.0 0.0 0.00 0.00 0.00 65 1013.5
20260508233309 68 238 0.0 0.0 0.00 0.00 0.00 65 1013.5
20260508232725 69 247 0.0 0.0 0.00 0.00 0.00 58 1013.8
20260508232135 70 217 0.0 0.0 0.00 0.00 0.00 53 1013.8
20260508231513 71 227 0.0 0.0 0.00 0.00 0.00 56 1013.5
20260508230947 71 239 0.0 0.0 0.00 0.00 0.00 50 1013.8
20260508230323 72 267 0.0 2.0 0.00 0.00 0.00 41 1013.8
20260508225749 72 244 0.0 0.0 0.00 0.00 0.00 42 1014.2
20260508225148 72 227 3.0 5.0 0.00 0.00 0.00 40 1013.5
20260508224518 73 245 0.0 0.0 0.00 0.00 0.00 40 1013.8
20260508223947 73 319 3.0 5.0 0.00 0.00 0.00 38 1013.8
20260508223318 73 330 5.0 7.0 0.00 0.00 0.00 33 1013.5
20260508222127 72 174 0.0 2.0 0.00 0.00 0.00 34 1013.8
20260508221541 72 34 4.0 7.0 0.00 0.00 0.00 35 1013.8
20260508220935 72 10 0.0 0.0 0.00 0.00 0.00 35 1013.5
20260508220310 73 277 4.0 7.0 0.00 0.00 0.00 34 1013.8
20260508215732 73 42 0.0 0.0 0.00 0.00 0.00 35 1013.8
20260508214546 73 149 0.0 0.0 0.00 0.00 0.00 35 1013.8
20260508213913 73 112 6.0 10.0 0.00 0.00 0.00 36 1013.8
20260508212116 73 262 2.0 5.0 0.00 0.00 0.00 34 1014.2
20260508211515 74 310 0.0 0.0 0.00 0.00 0.00 36 1013.8
20260508210918 74 359 7.0 10.0 0.00 0.00 0.00 34 1013.8
20260508210319 74 143 0.0 0.0 0.00 0.00 0.00 36 1014.2
20260508205739 73 222 6.0 10.0 0.00 0.00 0.00 35 1013.8
20260508205124 73 192 3.0 5.0 0.00 0.00 0.00 34 1013.8
20260508204551 73 260 0.0 2.0 0.00 0.00 0.00 35 1014.2
20260508203919 73 84 0.0 2.0 0.00 0.00 0.00 37 1014.2
20260508203320 73 244 0.0 0.0 0.00 0.00 0.00 34 1014.2
20260508202734 73 260 0.0 2.0 0.00 0.00 0.00 35 1014.5
20260508202114 72 338 0.0 2.0 0.00 0.00 0.00 37 1014.2
20260508201518 72 199 0.0 0.0 0.00 0.00 0.00 42 1014.5